Location: Courçay
(47.2523°N, 0.8761°E)
Time: 21:32:43
(UTC+00:00)

Cosmos 2082 Rocket - Pass Details

Date: 18 November 2025
Orbit: 834 x 851 km, 71.0° (Epoch: 04 December)

Event Time Altitude Azimuth Distance (km) Brightness Sun altitude
Rises 17:30:51 0° 334° (NNW) 3,392 5.5 -12.3°
Reaches altitude 10° 17:33:20 10° 338° (NNW) 2,454 4.7 -12.7°
Maximum altitude 17:38:55 64° 60° (ENE) 925 2.1 -13.7°
Drops below altitude 10° 17:44:28 10° 141° (SE) 2,441 4.4 -14.6°
Sets 17:46:56 0° 145° (SE) 3,373 5.1 -15.0°
